Tracking 18844 objects as of 21-Nov-2017
HD Live streaming from Space Station
objects crossing your sky now

FLOCK 3P 34

Track FLOCK 3P 34 now!
10-day predictions
FLOCK 3P 34 is classified as:


NORAD ID: 41988
Int'l Code: 2017-008AS
Perigee: 496.8 km
Apogee: 507.8 km
Inclination: 97.5 °
Period: 94.5 minutes
Semi major axis: 6873 km
RCS: Unknown
Launch date: February 15, 2017
Source: United States (US)
Launch site: SRIHARIKOTA (SRI)
aabbcc
Your satellite tracking list
Your tracking list is empty




NASA's NSSDC Master Catalog

Two Line Element Set (TLE):
1 41988U 17008AS  17324.72760665 +.00003966 +00000-0 +16886-3 0  9998
2 41988 097.4784 025.6225 0008022 017.1917 342.9590 15.23547336041681
Source of the keplerian elements: AFSPC